![]() |
EMODnet Physics ERDDAP
Easier access to scientific data |
log in|
Brought to you by EMODnet Physics |
| Dataset Title: | NDBC - Collection of dew point temperature (DEWT) TimeSeries - IN SITU MultiPointTimeSeriesObservation
|
| Institution: | NDBC (Dataset ID: TS_DEWT_NDBC) |
| Information: | Summary
| License
| FGDC
| ISO 19115
| Metadata
| Background
| Subset
| Data Access Form
| Make a graph
|
| Name | Last modified | Size | Description | |
|---|---|---|---|---|
| Parent Directory | - | - | ||
| LIXA2_TS_DEWT_012018.nc | 24-Dec-2024 10:49 | 429362 | ||
| LIXA2_TS_DEWT_012019.nc | 24-Dec-2024 10:52 | 429366 | ||
| LIXA2_TS_DEWT_012020.nc | 24-Dec-2024 10:56 | 429363 | ||
| LIXA2_TS_DEWT_012021.nc | 24-Dec-2024 10:59 | 429364 | ||
| LIXA2_TS_DEWT_012022.nc | 24-Dec-2024 11:02 | 429369 | ||
| LIXA2_TS_DEWT_012023.nc | 24-Dec-2024 11:06 | 429571 | ||
| LIXA2_TS_DEWT_012025.nc | 07-Feb-2025 19:46 | 429568 | ||
| LIXA2_TS_DEWT_012026.nc | 02-Feb-2026 20:41 | 429565 | ||
| LIXA2_TS_DEWT_022018.nc | 24-Dec-2024 10:49 | 429569 | ||
| LIXA2_TS_DEWT_022019.nc | 24-Dec-2024 10:53 | 429566 | ||
| LIXA2_TS_DEWT_022020.nc | 24-Dec-2024 10:56 | 429570 | ||
| LIXA2_TS_DEWT_022021.nc | 24-Dec-2024 10:59 | 429567 | ||
| LIXA2_TS_DEWT_022022.nc | 24-Dec-2024 11:03 | 429570 | ||
| LIXA2_TS_DEWT_022023.nc | 24-Dec-2024 11:06 | 429569 | ||
| LIXA2_TS_DEWT_022025.nc | 01-Mar-2025 08:52 | 429567 | ||
| LIXA2_TS_DEWT_022026.nc | 02-Mar-2026 09:25 | 429566 | ||
| LIXA2_TS_DEWT_032018.nc | 24-Dec-2024 10:49 | 429569 | ||
| LIXA2_TS_DEWT_032019.nc | 24-Dec-2024 10:53 | 429565 | ||
| LIXA2_TS_DEWT_032020.nc | 24-Dec-2024 10:56 | 429461 | ||
| LIXA2_TS_DEWT_032021.nc | 24-Dec-2024 11:00 | 429569 | ||
| LIXA2_TS_DEWT_032022.nc | 24-Dec-2024 11:03 | 429567 | ||
| LIXA2_TS_DEWT_032023.nc | 24-Dec-2024 11:07 | 429567 | ||
| LIXA2_TS_DEWT_032025.nc | 02-Apr-2025 06:47 | 429569 | ||
| LIXA2_TS_DEWT_032026.nc | 25-Mar-2026 16:30 | 429565 | ||
| LIXA2_TS_DEWT_042018.nc | 24-Dec-2024 10:50 | 427977 | ||
| LIXA2_TS_DEWT_042019.nc | 24-Dec-2024 10:53 | 428050 | ||
| LIXA2_TS_DEWT_042020.nc | 24-Dec-2024 10:57 | 427542 | ||
| LIXA2_TS_DEWT_042021.nc | 24-Dec-2024 11:00 | 429681 | ||
| LIXA2_TS_DEWT_042022.nc | 24-Dec-2024 11:03 | 429686 | ||
| LIXA2_TS_DEWT_042023.nc | 24-Dec-2024 11:07 | 429695 | ||
| LIXA2_TS_DEWT_042025.nc | 01-May-2025 07:01 | 429576 | ||
| LIXA2_TS_DEWT_052018.nc | 24-Dec-2024 10:50 | 429369 | ||
| LIXA2_TS_DEWT_052019.nc | 24-Dec-2024 10:53 | 429691 | ||
| LIXA2_TS_DEWT_052020.nc | 24-Dec-2024 10:57 | 429687 | ||
| LIXA2_TS_DEWT_052021.nc | 24-Dec-2024 11:00 | 429686 | ||
| LIXA2_TS_DEWT_052022.nc | 24-Dec-2024 11:04 | 429691 | ||
| LIXA2_TS_DEWT_052023.nc | 24-Dec-2024 11:07 | 429691 | ||
| LIXA2_TS_DEWT_052025.nc | 01-Jun-2025 07:50 | 429683 | ||
| LIXA2_TS_DEWT_062018.nc | 24-Dec-2024 10:50 | 429692 | ||
| LIXA2_TS_DEWT_062019.nc | 24-Dec-2024 10:54 | 429695 | ||
| LIXA2_TS_DEWT_062020.nc | 24-Dec-2024 10:57 | 429684 | ||
| LIXA2_TS_DEWT_062021.nc | 24-Dec-2024 11:01 | 429690 | ||
| LIXA2_TS_DEWT_062022.nc | 24-Dec-2024 11:04 | 429691 | ||
| LIXA2_TS_DEWT_062023.nc | 24-Dec-2024 11:07 | 429691 | ||
| LIXA2_TS_DEWT_062025.nc | 17-Jun-2025 06:10 | 429685 | ||
| LIXA2_TS_DEWT_072018.nc | 24-Dec-2024 10:50 | 429808 | ||
| LIXA2_TS_DEWT_072019.nc | 24-Dec-2024 10:54 | 429907 | ||
| LIXA2_TS_DEWT_072020.nc | 24-Dec-2024 10:58 | 429913 | ||
| LIXA2_TS_DEWT_072021.nc | 24-Dec-2024 11:01 | 429871 | ||
| LIXA2_TS_DEWT_072022.nc | 24-Dec-2024 11:04 | 429865 | ||
| LIXA2_TS_DEWT_072023.nc | 24-Dec-2024 11:08 | 429910 | ||
| LIXA2_TS_DEWT_072025.nc | 16-Aug-2025 06:11 | 429910 | ||
| LIXA2_TS_DEWT_082018.nc | 24-Dec-2024 10:51 | 429911 | ||
| LIXA2_TS_DEWT_082019.nc | 24-Dec-2024 10:54 | 429910 | ||
| LIXA2_TS_DEWT_082020.nc | 24-Dec-2024 10:58 | 429910 | ||
| LIXA2_TS_DEWT_082021.nc | 24-Dec-2024 11:01 | 429910 | ||
| LIXA2_TS_DEWT_082022.nc | 24-Dec-2024 11:04 | 429907 | ||
| LIXA2_TS_DEWT_082023.nc | 24-Dec-2024 11:08 | 429910 | ||
| LIXA2_TS_DEWT_082025.nc | 01-Sep-2025 06:42 | 429750 | ||
| LIXA2_TS_DEWT_092018.nc | 24-Dec-2024 10:51 | 429647 | ||
| LIXA2_TS_DEWT_092019.nc | 24-Dec-2024 10:55 | 429911 | ||
| LIXA2_TS_DEWT_092020.nc | 24-Dec-2024 10:58 | 428946 | ||
| LIXA2_TS_DEWT_092021.nc | 24-Dec-2024 11:01 | 429907 | ||
| LIXA2_TS_DEWT_092022.nc | 24-Dec-2024 11:05 | 429911 | ||
| LIXA2_TS_DEWT_092023.nc | 24-Dec-2024 11:08 | 429907 | ||
| LIXA2_TS_DEWT_092025.nc | 01-Oct-2025 06:39 | 1143204 | ||
| LIXA2_TS_DEWT_102018.nc | 24-Dec-2024 10:51 | 1142685 | ||
| LIXA2_TS_DEWT_102019.nc | 24-Dec-2024 10:55 | 1143109 | ||
| LIXA2_TS_DEWT_102020.nc | 24-Dec-2024 10:58 | 1142703 | ||
| LIXA2_TS_DEWT_102021.nc | 24-Dec-2024 11:02 | 1143314 | ||
| LIXA2_TS_DEWT_102022.nc | 24-Dec-2024 11:05 | 1143329 | ||
| LIXA2_TS_DEWT_102023.nc | 24-Dec-2024 11:09 | 1143201 | ||
| LIXA2_TS_DEWT_102025.nc | 01-Nov-2025 04:38 | 1143353 | ||
| LIXA2_TS_DEWT_112018.nc | 24-Dec-2024 10:52 | 1142798 | ||
| LIXA2_TS_DEWT_112019.nc | 24-Dec-2024 10:55 | 1143072 | ||
| LIXA2_TS_DEWT_112020.nc | 24-Dec-2024 10:59 | 1142053 | ||
| LIXA2_TS_DEWT_112021.nc | 24-Dec-2024 11:02 | 1142793 | ||
| LIXA2_TS_DEWT_112022.nc | 24-Dec-2024 11:05 | 1142997 | ||
| LIXA2_TS_DEWT_112023.nc | 24-Dec-2024 11:09 | 1143362 | ||
| LIXA2_TS_DEWT_112024.nc | 17-Jan-2025 17:18 | 1143286 | ||
| LIXA2_TS_DEWT_112025.nc | 01-Dec-2025 07:48 | 917170 | ||
| LIXA2_TS_DEWT_122017.nc | 24-Dec-2024 10:48 | 916931 | ||
| LIXA2_TS_DEWT_122018.nc | 24-Dec-2024 10:52 | 917112 | ||
| LIXA2_TS_DEWT_122019.nc | 24-Dec-2024 10:56 | 992791 | ||
| LIXA2_TS_DEWT_122020.nc | 24-Dec-2024 10:59 | 917317 | ||
| LIXA2_TS_DEWT_122021.nc | 24-Dec-2024 11:02 | 917252 | ||
| LIXA2_TS_DEWT_122022.nc | 24-Dec-2024 11:06 | 917271 | ||
| LIXA2_TS_DEWT_122023.nc | 24-Dec-2024 11:09 | 992708 | ||
| LIXA2_TS_DEWT_122024.nc | 22-Jan-2025 18:10 | 917167 | ||
| LIXA2_TS_DEWT_122025.nc | 16-Dec-2025 15:20 | 917276 | ||